When you browse on this site, cookies collect data to enhance your experience and personalize the content and advertising you see.
Visit our Privacy Policy to learn more. By continuing to use the site, you agree to this use of cookies and data.
  • In Slovakia
  • List of Countries
  • For 7 days
  • Water Temperature
  • Satellite Maps
  • Weather Map
  • Weather Widgets
  • user-avatar
    Login

    Hourly Weather Chinar

    Today, 22 April, Monday

    Time Temperature Precipitation Wind Pressure Humidity
    00:00 +6°C° 0 mm 1 mps 760 mmHg 90%
    01:00 +5°C° 0 mm 1 mps 760 mmHg 90%
    02:00 +5°C° 0 mm 1 mps 760 mmHg 89%
    03:00 +5°C° 0 mm 1 mps 759 mmHg 89%
    04:00 +5°C° 0 mm 1 mps 759 mmHg 86%
    05:00 +6°C° 0 mm 1 mps 760 mmHg 84%
    06:00 +6°C° 0 mm 1 mps 760 mmHg 81%
    07:00 +7°C° 0 mm 2 mps 760 mmHg 76%
    08:00 +8°C° 0 mm 2 mps 759 mmHg 71%
    09:00 +9°C° 0 mm 2 mps 759 mmHg 67%
    10:00 +9°C° 0 mm 3 mps 759 mmHg 68%
    11:00 +9°C° 0 mm 3 mps 759 mmHg 69%
    12:00 +8°C° 0 mm 4 mps 759 mmHg 70%
    13:00 +9°C° 0.1 mm 3 mps 759 mmHg 72%
    14:00 +9°C° 0.1 mm 3 mps 759 mmHg 73%
    15:00 +9°C° 0.1 mm 3 mps 759 mmHg 74%
    16:00 +8°C° 0 mm 2 mps 759 mmHg 75%
    17:00 +9°C° 0 mm 1 mps 760 mmHg 76%
    18:00 +8°C° 0 mm 0 mps 760 mmHg 77%
    19:00 +8°C° 0 mm 1 mps 760 mmHg 78%
    20:00 +8°C° 0 mm 1 mps 760 mmHg 79%
    21:00 +6°C° 0 mm 2 mps 760 mmHg 80%
    22:00 +6°C° 0 mm 2 mps 761 mmHg 78%
    23:00 +6°C° 0 mm 2 mps 761 mmHg 77%

    Tomorrow, 23 April, Tuesday

    Time Temperature Precipitation Wind Pressure Humidity
    00:00 +6°C° 0 mm 2 mps 761 mmHg 76%
    01:00 +6°C° 0 mm 2 mps 761 mmHg 74%
    02:00 +5°C° 0 mm 3 mps 761 mmHg 71%
    03:00 +5°C° 0 mm 3 mps 761 mmHg 69%
    04:00 +5°C° 0 mm 3 mps 761 mmHg 65%
    05:00 +7°C° 0 mm 3 mps 762 mmHg 62%
    06:00 +7°C° 0 mm 3 mps 762 mmHg 58%
    07:00 +9°C° 0 mm 3 mps 762 mmHg 53%
    08:00 +10°C° 0 mm 4 mps 762 mmHg 47%
    09:00 +12°C° 0 mm 4 mps 763 mmHg 42%
    10:00 +12°C° 0 mm 4 mps 763 mmHg 43%
    11:00 +13°C° 0 mm 4 mps 763 mmHg 44%
    12:00 +13°C° 0 mm 4 mps 763 mmHg 44%
    13:00 +13°C° 0 mm 4 mps 763 mmHg 46%
    14:00 +13°C° 0 mm 4 mps 763 mmHg 47%
    15:00 +12°C° 0 mm 3 mps 763 mmHg 48%
    16:00 +12°C° 0 mm 2 mps 763 mmHg 51%
    17:00 +12°C° 0 mm 2 mps 763 mmHg 54%
    18:00 +11°C° 0 mm 1 mps 764 mmHg 58%
    19:00 +10°C° 0 mm 1 mps 764 mmHg 60%
    20:00 +8°C° 0 mm 2 mps 764 mmHg 62%
    21:00 +8°C° 0 mm 2 mps 765 mmHg 64%
    22:00 +8°C° 0 mm 3 mps 765 mmHg 63%
    23:00 +8°C° 0 mm 3 mps 765 mmHg 62%

    Day after tomorrow, 24 April, Wednesday

    Time Temperature Precipitation Wind Pressure Humidity
    00:00 +8°C° 0 mm 3 mps 765 mmHg 62%
    01:00 +8°C° 0 mm 3 mps 765 mmHg 60%
    02:00 +8°C° 0 mm 3 mps 765 mmHg 59%
    03:00 +8°C° 0 mm 3 mps 765 mmHg 57%
    04:00 +7°C° 0 mm 4 mps 765 mmHg 56%
    05:00 +8°C° 0 mm 4 mps 765 mmHg 54%
    06:00 +8°C° 0 mm 4 mps 765 mmHg 53%
    07:00 +11°C° 0 mm 3 mps 765 mmHg 47%
    08:00 +13°C° 0 mm 3 mps 765 mmHg 42%
    09:00 +16°C° 0 mm 2 mps 764 mmHg 37%
    10:00 +16°C° 0 mm 3 mps 764 mmHg 37%
    11:00 +17°C° 0 mm 3 mps 764 mmHg 38%
    12:00 +17°C° 0 mm 3 mps 764 mmHg 38%
    13:00 +17°C° 0 mm 3 mps 763 mmHg 40%
    14:00 +17°C° 0 mm 3 mps 763 mmHg 41%
    15:00 +16°C° 0 mm 2 mps 763 mmHg 43%
    16:00 +15°C° 0 mm 2 mps 763 mmHg 48%
    17:00 +15°C° 0 mm 1 mps 763 mmHg 53%
    18:00 +14°C° 0 mm 1 mps 763 mmHg 57%
    19:00 +13°C° 0 mm 2 mps 763 mmHg 58%
    20:00 +13°C° 0 mm 2 mps 764 mmHg 59%
    21:00 +11°C° 0 mm 3 mps 764 mmHg 59%
    22:00 +11°C° 0 mm 3 mps 764 mmHg 59%
    23:00 +11°C° 0 mm 3 mps 764 mmHg 58%

    25 April, Thursday

    Time Temperature Precipitation Wind Pressure Humidity
    00:00 +11°C° 0 mm 3 mps 763 mmHg 58%
    01:00 +10°C° 0 mm 2 mps 763 mmHg 57%
    02:00 +10°C° 0 mm 2 mps 763 mmHg 56%
    03:00 +10°C° 0 mm 2 mps 763 mmHg 55%
    04:00 +10°C° 0 mm 2 mps 763 mmHg 53%
    05:00 +10°C° 0 mm 3 mps 763 mmHg 51%
    06:00 +11°C° 0 mm 3 mps 764 mmHg 49%
    07:00 +13°C° 0 mm 2 mps 764 mmHg 45%
    08:00 +15°C° 0 mm 1 mps 764 mmHg 41%
    09:00 +18°C° 0 mm 1 mps 764 mmHg 36%
    10:00 +18°C° 0 mm 2 mps 764 mmHg 37%
    11:00 +18°C° 0 mm 3 mps 763 mmHg 38%
    12:00 +19°C° 0 mm 4 mps 763 mmHg 38%
    13:00 +18°C° 0 mm 3 mps 763 mmHg 42%
    14:00 +18°C° 0 mm 3 mps 763 mmHg 45%
    15:00 +17°C° 0 mm 2 mps 762 mmHg 49%
    16:00 +17°C° 0 mm 2 mps 763 mmHg 53%
    17:00 +16°C° 0 mm 2 mps 763 mmHg 58%
    18:00 +15°C° 0 mm 1 mps 763 mmHg 62%
    19:00 +15°C° 0.1 mm 2 mps 763 mmHg 63%
    20:00 +15°C° 0.1 mm 2 mps 764 mmHg 64%
    21:00 +14°C° 0.1 mm 2 mps 764 mmHg 65%
    22:00 +14°C° 0 mm 2 mps 764 mmHg 64%
    23:00 +14°C° 0 mm 2 mps 764 mmHg 64%

    26 April, Friday

    Time Temperature Precipitation Wind Pressure Humidity
    00:00 +13°C° 0 mm 2 mps 763 mmHg 63%
    01:00 +12°C° 0 mm 3 mps 763 mmHg 61%
    02:00 +12°C° 0 mm 3 mps 763 mmHg 60%
    03:00 +11°C° 0 mm 3 mps 763 mmHg 59%
    04:00 +12°C° 0 mm 3 mps 763 mmHg 57%
    05:00 +13°C° 0 mm 2 mps 763 mmHg 56%
    06:00 +13°C° 0 mm 2 mps 763 mmHg 55%
    07:00 +15°C° 0 mm 2 mps 763 mmHg 52%
    08:00 +18°C° 0 mm 1 mps 763 mmHg 48%
    09:00 +19°C° 0 mm 1 mps 763 mmHg 45%
    10:00 +19°C° 0 mm 2 mps 762 mmHg 45%
    11:00 +20°C° 0 mm 3 mps 762 mmHg 45%
    12:00 +20°C° 0 mm 4 mps 762 mmHg 45%
    13:00 +20°C° 0 mm 4 mps 762 mmHg 47%
    14:00 +19°C° 0 mm 4 mps 761 mmHg 50%
    15:00 +19°C° 0 mm 4 mps 761 mmHg 52%
    16:00 +18°C° 0 mm 4 mps 761 mmHg 56%
    17:00 +17°C° 0 mm 3 mps 761 mmHg 60%
    18:00 +16°C° 0 mm 3 mps 761 mmHg 63%
    19:00 +15°C° 0 mm 2 mps 761 mmHg 65%
    20:00 +14°C° 0 mm 2 mps 762 mmHg 68%
    21:00 +13°C° 0 mm 2 mps 762 mmHg 70%
    22:00 +13°C° 0 mm 2 mps 762 mmHg 68%
    23:00 +13°C° 0 mm 2 mps 762 mmHg 67%

    27 April, Saturday

    Time Temperature Precipitation Wind Pressure Humidity
    00:00 +13°C° 0 mm 2 mps 762 mmHg 66%
    01:00 +12°C° 0 mm 2 mps 761 mmHg 64%
    02:00 +12°C° 0 mm 2 mps 761 mmHg 63%
    03:00 +12°C° 0 mm 2 mps 761 mmHg 61%
    04:00 +12°C° 0 mm 2 mps 761 mmHg 60%
    05:00 +13°C° 0 mm 2 mps 761 mmHg 59%
    06:00 +13°C° 0 mm 1 mps 761 mmHg 58%
    07:00 +15°C° 0 mm 2 mps 761 mmHg 52%
    08:00 +17°C° 0 mm 2 mps 761 mmHg 46%
    09:00 +19°C° 0 mm 3 mps 761 mmHg 41%
    10:00 +19°C° 0 mm 3 mps 761 mmHg 39%
    11:00 +20°C° 0 mm 4 mps 761 mmHg 38%
    12:00 +21°C° 0 mm 5 mps 760 mmHg 37%
    13:00 +21°C° 0 mm 5 mps 760 mmHg 38%
    14:00 +21°C° 0 mm 5 mps 760 mmHg 39%
    15:00 +21°C° 0 mm 6 mps 759 mmHg 40%
    16:00 +19°C° 0 mm 5 mps 759 mmHg 47%
    17:00 +17°C° 0 mm 5 mps 759 mmHg 54%
    18:00 +15°C° 0 mm 4 mps 759 mmHg 61%
    19:00 +14°C° 0 mm 4 mps 759 mmHg 63%
    20:00 +13°C° 0 mm 3 mps 760 mmHg 66%
    21:00 +12°C° 0 mm 3 mps 760 mmHg 68%
    22:00 +12°C° 0 mm 3 mps 760 mmHg 67%
    23:00 +12°C° 0 mm 3 mps 759 mmHg 65%
    Show more